Regional Weather Roundup
Issued by NWS Mt. Holly, NJ

Home | Current Version | Previous Version | Text Only | Print | Product List | Glossary On
Versions: 1 2 3 4 5 6 7 8 9 10 11 12 13 14 15 16 17 18 19 20 21 22 23 24 25 26 27 28 29 30 31 32 33 34 35 36 37 38 39 40 41 42 43 44 45 46 47
000
ASUS41 KPHI 251310
RWRPHI

REGIONAL WEATHER ROUNDUP
NATIONAL WEATHER SERVICE MOUNT HOLLY NJ
800 AM EST THU DEC 25 2014

NOTE:  "FAIR" INDICATES FEW OR NO CLOUDS BELOW 12,000 FEET WITH NO
SIGNIFICANT WEATHER AND/OR OBSTRUCTIONS TO VISIBILITY.

 * = STATION DOES NOT REPORT PRECIPITATION (E.G. RAIN, SNOW, ETC.)
        OR FOG.

NJZ015>026-251400-
SOUTHERN NEW JERSEY

CITY           SKY/WX    TMP DP  RH WIND       PRES   REMARKS
POMONA         CLOUDY    51  48  89 NW13      29.71R
RIO GRANDE*    CLOUDY    48  43  81 W9        29.72R
MILLVILLE      LGT RAIN  50  42  74 W14       29.74R
WRIGHTSTOWN    CLOUDY    49  44  81 NW12      29.70R
MOUNT HOLLY    CLOUDY    50  41  71 NW6       29.72R
TRENTON        CLOUDY    48  38  68 W9        29.71R

$$
NJZ001>014-251400-
NORTHERN NEW JERSEY

CITY           SKY/WX    TMP DP  RH WIND       PRES   REMARKS
SUSSEX         CLOUDY    46  38  73 SW6       29.65R
ANDOVER*       NOT AVBL
MORRISTOWN     CLOUDY    52  43  71 W10G22    29.67R
NEWARK         CLOUDY    49  41  74 W15G25    29.65R
TETERBORO      CLOUDY    50  29  44 W12       29.63R
CALDWELL       CLOUDY    49  39  68 W7        29.66R
SOMERVILLE     CLOUDY    49  37  63 VRB7G20   29.67R
ALLAIRE*       CLOUDY    48  43  81 W9        29.69R
TOMS RIVER*    CLOUDY    50  46  87 NW13      29.70R

$$
PAZ043-044-047-054-055-060>062-066>071-251400-
EASTERN PENNSYLVANIA

CITY           SKY/WX    TMP DP  RH WIND       PRES   REMARKS
PHILADELPHIA   CLOUDY    50  40  68 W10       29.74R
NORTH PHILA    CLOUDY    50  40  68 W9        29.74R
BLUE BELL      CLOUDY    46  43  87 W6        29.72R
DOYLESTOWN     CLOUDY    45  32  60 W13G18    29.71R
POTTSTOWN      CLOUDY    46  40  79 W7        29.75R
LANCASTER      CLOUDY    45  35  68 W16       29.74R
COATESVILLE    CLOUDY    46  41  81 NW20      29.73R
READING        CLOUDY    45  39  79 W7        29.73R
ALLENTOWN      CLOUDY    46  37  71 W14       29.71R
MOUNT POCONO   CLOUDY    39  33  79 W18G28    29.62R WCI  30
HAZLETON       CLOUDY    39  32  75 W10G21    29.70R WCI  32
WILKES BARRE   MOCLDY    43  33  68 W14G28    29.67R

$$
DEZALL-MDZ008-012-015-019-020-251400-
DELAWARE AND EASTERN MARYLAND

CITY           SKY/WX    TMP DP  RH WIND       PRES   REMARKS
WILMINGTON     CLOUDY    50  39  66 NW15      29.75R
DOVER          CLOUDY    50  44  78 W10       29.75R
GEORGETOWN     LGT RAIN  53  45  74 NW15G21   29.78R
EASTON         CLOUDY    50  41  71 NW16G24   29.82R
PATUXENT       CLOUDY    49  43  80 NW10      29.79R
OCEAN CITY     CLOUDY    53  50  89 NW13      29.75R
WALLOPS ISLAND CLOUDY    56  53  90 N17G29    29.79R
CAMBRIDGE      CLOUDY    52  43  71 NW8       29.78R
SALISBURY      CLOUDY    54  46  74 NW14G24   29.77R

$$
PAZ001-021-NYZ056-072-MDZ011-DCZ001-251400-
OTHER NEARBY LOCATIONS

CITY           SKY/WX    TMP DP  RH WIND       PRES   REMARKS
HARRISBURG     MOCLDY    45  33  63 W9        29.75R
STATE COLLEGE  CLOUDY    39  32  75 W17G23    29.75R WCI  30
WILLIAMSPORT   CLOUDY    43  31  62 W10       29.70R
BINGHAMTON     CLOUDY    39  32  76 W20G26    29.61R WCI  29
NEW YORK CITY  CLOUDY    51  40  65 W12G18    29.67R
BALTIMORE      CLOUDY    47  36  65 W12       29.78R
WASHINGTON DC  CLOUDY    51  37  58 NW3       29.81R

$$


USA.gov is the U.S. government's official web portal to all federal, state and local government web resources and services.